When you browse on this site, cookies collect data to enhance your experience and personalize the content and advertising you see.
Visit our Privacy Policy to learn more. By continuing to use the site, you agree to this use of cookies and data.

Météo par heure à Gnesichi

Ce jour, 4 Juillet, Samedi

Heure Température Précipitation Vent Pression Humidité
00:00 +16°C° 0 mm 1 m/s 747 mmHg 90%
01:00 +16°C° 0 mm 1 m/s 748 mmHg 91%
02:00 +16°C° 0 mm 1 m/s 748 mmHg 92%
03:00 +16°C° 0 mm 2 m/s 748 mmHg 92%
04:00 +15°C° 0 mm 2 m/s 748 mmHg 92%
05:00 +15°C° 0 mm 2 m/s 748 mmHg 92%
06:00 +17°C° 0 mm 2 m/s 749 mmHg 87%
07:00 +18°C° 0 mm 2 m/s 749 mmHg 83%
08:00 +20°C° 0 mm 2 m/s 749 mmHg 78%
09:00 +21°C° 0 mm 2 m/s 749 mmHg 74%
10:00 +23°C° 0 mm 2 m/s 750 mmHg 70%
11:00 +24°C° 0 mm 2 m/s 750 mmHg 65%
12:00 +25°C° 0 mm 2 m/s 750 mmHg 63%
13:00 +25°C° 0 mm 3 m/s 749 mmHg 61%
14:00 +25°C° 0 mm 3 m/s 749 mmHg 59%
15:00 +25°C° 0 mm 3 m/s 749 mmHg 60%
16:00 +25°C° 0 mm 3 m/s 749 mmHg 61%
17:00 +25°C° 0 mm 3 m/s 749 mmHg 62%
18:00 +23°C° 0 mm 2 m/s 749 mmHg 68%
19:00 +21°C° 0 mm 2 m/s 749 mmHg 74%
20:00 +20°C° 0 mm 1 m/s 749 mmHg 80%
21:00 +19°C° 0 mm 1 m/s 749 mmHg 82%
22:00 +18°C° 0 mm 1 m/s 749 mmHg 84%
23:00 +16°C° 0 mm 1 m/s 749 mmHg 86%

Demain, 5 Juillet, Dimanche

Heure Température Précipitation Vent Pression Humidité
00:00 +16°C° 0 mm 1 m/s 749 mmHg 87%
01:00 +16°C° 0 mm 2 m/s 749 mmHg 89%
02:00 +15°C° 0 mm 2 m/s 749 mmHg 91%
03:00 +15°C° 0 mm 2 m/s 748 mmHg 91%
04:00 +15°C° 0 mm 2 m/s 748 mmHg 91%
05:00 +15°C° 0 mm 2 m/s 748 mmHg 92%
06:00 +17°C° 0 mm 2 m/s 748 mmHg 87%
07:00 +19°C° 0 mm 3 m/s 748 mmHg 82%
08:00 +21°C° 0 mm 3 m/s 748 mmHg 78%
09:00 +22°C° 0 mm 4 m/s 748 mmHg 74%
10:00 +23°C° 0 mm 4 m/s 748 mmHg 70%
11:00 +25°C° 0 mm 5 m/s 748 mmHg 66%
12:00 +25°C° 0.2 mm 5 m/s 748 mmHg 66%
13:00 +25°C° 0.2 mm 5 m/s 747 mmHg 66%
14:00 +25°C° 0.2 mm 4 m/s 747 mmHg 67%
15:00 +25°C° 0.1 mm 4 m/s 747 mmHg 68%
16:00 +25°C° 0.1 mm 4 m/s 747 mmHg 69%
17:00 +25°C° 0.1 mm 4 m/s 747 mmHg 71%
18:00 +24°C° 0.1 mm 3 m/s 747 mmHg 77%
19:00 +22°C° 0.1 mm 3 m/s 747 mmHg 83%
20:00 +21°C° 0.1 mm 2 m/s 747 mmHg 89%
21:00 +20°C° 0 mm 2 m/s 747 mmHg 91%
22:00 +19°C° 0 mm 2 m/s 747 mmHg 93%
23:00 +18°C° 0 mm 2 m/s 747 mmHg 95%

Après-demain, 6 Juillet, Lundi

Heure Température Précipitation Vent Pression Humidité
00:00 +18°C° 0 mm 3 m/s 746 mmHg 95%
01:00 +18°C° 0 mm 3 m/s 746 mmHg 96%
02:00 +18°C° 0 mm 3 m/s 746 mmHg 96%
03:00 +18°C° 0 mm 3 m/s 746 mmHg 96%
04:00 +18°C° 0 mm 3 m/s 745 mmHg 95%
05:00 +18°C° 0 mm 3 m/s 745 mmHg 95%
06:00 +20°C° 0 mm 4 m/s 745 mmHg 91%
07:00 +21°C° 0 mm 4 m/s 745 mmHg 87%
08:00 +22°C° 0 mm 5 m/s 745 mmHg 83%
09:00 +23°C° 0.3 mm 5 m/s 745 mmHg 81%
10:00 +25°C° 0.3 mm 5 m/s 744 mmHg 78%
11:00 +26°C° 0.3 mm 5 m/s 744 mmHg 76%
12:00 +26°C° 0.5 mm 5 m/s 744 mmHg 76%
13:00 +26°C° 0.5 mm 5 m/s 743 mmHg 77%
14:00 +26°C° 0.5 mm 5 m/s 743 mmHg 77%
15:00 +26°C° 0.4 mm 5 m/s 743 mmHg 78%
16:00 +26°C° 0.4 mm 4 m/s 743 mmHg 79%
17:00 +26°C° 0.4 mm 4 m/s 743 mmHg 81%
18:00 +24°C° 0.5 mm 3 m/s 743 mmHg 84%
19:00 +22°C° 0.5 mm 3 m/s 743 mmHg 87%
20:00 +21°C° 0.5 mm 2 m/s 743 mmHg 90%
21:00 +20°C° 0 mm 3 m/s 743 mmHg 92%
22:00 +19°C° 0 mm 3 m/s 743 mmHg 93%
23:00 +18°C° 0 mm 3 m/s 743 mmHg 94%

7 Juillet, Mardi

Heure Température Précipitation Vent Pression Humidité
00:00 +17°C° 0 mm 3 m/s 744 mmHg 95%
01:00 +16°C° 0 mm 3 m/s 744 mmHg 95%
02:00 +16°C° 0 mm 3 m/s 744 mmHg 96%
03:00 +14°C° 0 mm 3 m/s 745 mmHg 95%
04:00 +14°C° 0 mm 2 m/s 745 mmHg 94%
05:00 +13°C° 0 mm 2 m/s 745 mmHg 93%
06:00 +13°C° 0 mm 3 m/s 746 mmHg 88%
07:00 +14°C° 0 mm 3 m/s 746 mmHg 83%
08:00 +17°C° 0 mm 4 m/s 747 mmHg 77%
09:00 +18°C° 0 mm 4 m/s 747 mmHg 72%
10:00 +19°C° 0 mm 4 m/s 747 mmHg 68%
11:00 +19°C° 0 mm 5 m/s 747 mmHg 63%
12:00 +20°C° 0 mm 5 m/s 747 mmHg 62%
13:00 +20°C° 0 mm 5 m/s 747 mmHg 61%
14:00 +21°C° 0 mm 5 m/s 747 mmHg 60%
15:00 +20°C° 0.1 mm 5 m/s 747 mmHg 62%
16:00 +20°C° 0.1 mm 5 m/s 747 mmHg 64%
17:00 +19°C° 0.1 mm 5 m/s 747 mmHg 67%
18:00 +18°C° 0.1 mm 4 m/s 747 mmHg 71%
19:00 +16°C° 0.1 mm 3 m/s 748 mmHg 75%
20:00 +15°C° 0.1 mm 2 m/s 748 mmHg 79%
21:00 +14°C° 0 mm 2 m/s 748 mmHg 83%
22:00 +12°C° 0 mm 2 m/s 748 mmHg 86%
23:00 +10°C° 0 mm 2 m/s 749 mmHg 90%

8 Juillet, Mercredi

Heure Température Précipitation Vent Pression Humidité
00:00 +9°C° 0 mm 2 m/s 749 mmHg 91%
01:00 +9°C° 0 mm 2 m/s 749 mmHg 92%
02:00 +9°C° 0 mm 2 m/s 749 mmHg 93%
03:00 +9°C° 0 mm 2 m/s 749 mmHg 93%
04:00 +9°C° 0 mm 2 m/s 749 mmHg 93%
05:00 +9°C° 0 mm 2 m/s 749 mmHg 93%
06:00 +12°C° 0 mm 2 m/s 749 mmHg 87%
07:00 +13°C° 0 mm 3 m/s 750 mmHg 81%
08:00 +16°C° 0 mm 3 m/s 750 mmHg 75%
09:00 +15°C° 0.2 mm 4 m/s 750 mmHg 72%
10:00 +17°C° 0.2 mm 4 m/s 749 mmHg 69%
11:00 +17°C° 0.2 mm 5 m/s 749 mmHg 67%
12:00 +17°C° 0.5 mm 5 m/s 749 mmHg 67%
13:00 +17°C° 0.5 mm 5 m/s 749 mmHg 67%
14:00 +19°C° 0.5 mm 6 m/s 749 mmHg 67%
15:00 +17°C° 0.4 mm 6 m/s 749 mmHg 70%
16:00 +17°C° 0.4 mm 6 m/s 749 mmHg 73%
17:00 +16°C° 0.4 mm 6 m/s 749 mmHg 76%
18:00 +15°C° 0.1 mm 5 m/s 749 mmHg 80%
19:00 +14°C° 0.1 mm 4 m/s 749 mmHg 83%
20:00 +13°C° 0.1 mm 3 m/s 750 mmHg 87%
21:00 +12°C° 0 mm 3 m/s 750 mmHg 89%
22:00 +11°C° 0 mm 3 m/s 750 mmHg 92%
23:00 +10°C° 0 mm 3 m/s 750 mmHg 94%

9 Juillet, Jeudi

Heure Température Précipitation Vent Pression Humidité
00:00 +10°C° 0 mm 3 m/s 751 mmHg 94%
01:00 +9°C° 0 mm 3 m/s 751 mmHg 95%
02:00 +9°C° 0 mm 3 m/s 751 mmHg 95%
03:00 +9°C° 0 mm 3 m/s 751 mmHg 95%
04:00 +9°C° 0 mm 3 m/s 751 mmHg 96%
05:00 +9°C° 0 mm 3 m/s 751 mmHg 96%
06:00 +11°C° 0 mm 3 m/s 751 mmHg 89%
07:00 +13°C° 0 mm 3 m/s 751 mmHg 83%
08:00 +14°C° 0 mm 3 m/s 751 mmHg 76%
09:00 +17°C° 0.1 mm 3 m/s 751 mmHg 71%
10:00 +18°C° 0.1 mm 4 m/s 751 mmHg 66%
11:00 +19°C° 0.1 mm 4 m/s 751 mmHg 61%
12:00 +19°C° 0.1 mm 4 m/s 750 mmHg 61%
13:00 +19°C° 0.1 mm 4 m/s 750 mmHg 61%
14:00 +20°C° 0.1 mm 5 m/s 750 mmHg 61%
15:00 +19°C° 0 mm 4 m/s 749 mmHg 65%
16:00 +19°C° 0 mm 3 m/s 749 mmHg 68%
17:00 +19°C° 0 mm 3 m/s 749 mmHg 71%
18:00 +18°C° 0.1 mm 3 m/s 749 mmHg 76%
19:00 +17°C° 0.1 mm 3 m/s 748 mmHg 81%
20:00 +16°C° 0.1 mm 3 m/s 748 mmHg 86%
21:00 +15°C° 0 mm 4 m/s 748 mmHg 83%
22:00 +17°C° 0 mm 4 m/s 748 mmHg 81%
23:00 +17°C° 0 mm 4 m/s 748 mmHg 78%
Voir plus